Content
SEND FEEDBACK

Daily
Averages
Monthly
Summary
Canada

VANCOUVER, BRITISH COLUMBIA


Home > North America > Canada > British Columbia
Elevation: 2 meters     Latitude: 49 11N     Longitude: 123 10W

WEATHER
 
SELECT A DAY
Number of Records: 249,675;   Date Range: 5/15/97 - 8/27/14
 
SHARE

PRINT THIS DATA

[ ← Previous Day ]
WEATHER ALMANAC - 28 APRIL, 2013
[ Next Day → ]
[ °F ]   °C
Weather ElementAverageHighLow
Temperature9.6 °C13 °C (1:35 pm)6 °C (5:55 am)
Dewpoint4.2 °C7 °C (9:55 pm)2 °C (11:15 am)
Humidity69.8 %93 % (9:55 pm)54 % (11:15 am)
Barometer1019.3 hPa1022 hPa (8:55 am)1012.5 hPa (11:55 pm)
Wind Speed10.5 km/h27.8 km/h (1:35 pm)
Wind Gust42.6 km/h (2:15 pm)
Weather ElementAverage
Visibility15.8 km
Wind DirectionSSE (173.7 °)

Weather ElementTotal
Precipitation---
Heating Degree Days8.8 (Base 18.3)
Averaged from 68 records on 28 April, 2013
WEATHER CONDITIONS BREAKOUT
WIND DIRECTION BREAKOUT
WEATHER BY HOUR - 28 APRIL, 2013
[ °F ]   °C
Local TimeTemperatureDewpointHumidityBarometerVisibilityWind DirectionWind SpeedGust SpeedPrecipitationEventsConditions
12:35 AM8 °C5 °C81 %1021.3 hPa16.1 kmSSW (210°)13 km/hClear
12:55 AM9 °C4 °C71 %1021.3 hPa16.1 kmSW (220°)11.1 km/hClear
1:15 AM9 °C4 °C71 %1021.3 hPa16.1 kmSSW (200°)14.8 km/hClear
1:35 AM9 °C4 °C71 %1021.3 hPa16.1 kmSW (220°)13 km/hClear
1:55 AM9 °C4 °C71 %1021.3 hPa16.1 kmSW (220°)9.3 km/hClear
2:15 AM8 °C4 °C76 %1021.3 hPa16.1 kmSSW (210°)9.3 km/hClear
2:35 AM9 °C3 °C66 %1021.3 hPa16.1 kmCalmClear
2:55 AM8 °C3 °C71 %1021.3 hPa16.1 kmSW (220°)5.6 km/hClear
3:15 AM8 °C3 °C71 %1021.3 hPa16.1 kmCalmClear
3:35 AM8 °C3 °C71 %1021.3 hPa16.1 kmCalmClear
3:55 AM7 °C3 °C76 %1021.7 hPa16.1 kmSSW (210°)5.6 km/hClear
4:15 AM7 °C3 °C76 %1021.7 hPa16.1 kmSSW (210°)13 km/hClear
4:35 AM7 °C3 °C76 %1021.7 hPa16.1 kmSSW (210°)7.4 km/hClear
4:55 AM7 °C3 °C76 %1021.7 hPa16.1 kmNorthClear
5:15 AM7 °C3 °C76 %1021.7 hPa16.1 kmSSW (210°)9.3 km/hScattered Clouds
5:35 AM7 °C3 °C76 %1021.7 hPa16.1 kmCalmScattered Clouds
5:55 AM6 °C3 °C81 %1021.7 hPa16.1 kmSSW (210°)11.1 km/hMostly Cloudy
6:15 AM7 °C3 °C76 %1021.3 hPa16.1 kmSSW (210°)7.4 km/hOvercast
6:35 AM7 °C3 °C76 %1021.3 hPa16.1 kmCalmScattered Clouds
6:55 AM8 °C3 °C71 %1021.7 hPa16.1 kmCalmClear
7:15 AM8 °C3 °C71 %1021.7 hPa16.1 kmCalmPartly Cloudy
7:35 AM9 °C3 °C66 %1021.7 hPa16.1 kmSW (220°)5.6 km/hScattered Clouds
7:55 AM9 °C3 °C66 %1021.7 hPa16.1 kmSW (220°)9.3 km/hScattered Clouds
8:15 AM9 °C4 °C71 %1021.7 hPa16.1 kmSouth (190°)7.4 km/hScattered Clouds
8:35 AM10 °C4 °C66 %1021.7 hPa16.1 kmSSE (160°)5.6 km/hPartly Cloudy
8:55 AM9 °C4 °C71 %1022 hPa16.1 kmSSW (200°)13 km/hPartly Cloudy
9:35 AM11 °C3 °C58 %1022 hPa16.1 kmSSW (210°)13 km/hMostly Cloudy
9:55 AM10 °C3 °C62 %1022 hPa16.1 kmWest (280°)13 km/hOvercast
10:35 AM11 °C3 °C58 %1022 hPa16.1 kmWSW (240°)9.3 km/hOvercast
10:55 AM11 °C3 °C58 %1021.7 hPa16.1 kmWSW (250°)7.4 km/hOvercast
11:15 AM11 °C2 °C54 %1021.7 hPa16.1 kmWNW (290°)9.3 km/hOvercast
11:35 AM11 °C4 °C62 %1021.3 hPa16.1 kmSouth (170°)7.4 km/hOvercast
11:55 AM11 °C5 °C67 %1021.3 hPa16.1 kmSE (130°)5.6 km/hOvercast
12:15 PM12 °C5 °C62 %1021 hPa16.1 kmSE (140°)9.3 km/hOvercast
12:35 PM12 °C5 °C62 %1021 hPa16.1 kmSouth (180°)9.3 km/hMostly Cloudy
12:55 PM12 °C5 °C62 %1020.7 hPa16.1 kmSSW (210°)20.4 km/h27.8 km/hPartly Cloudy
1:15 PM12 °C4 °C58 %1020.7 hPa16.1 kmSouth (180°)13 km/h27.8 km/hPartly Cloudy
1:35 PM13 °C5 °C58 %1020.7 hPa16.1 kmSSW (200°)27.8 km/h37 km/hPartly Cloudy
1:55 PM13 °C4 °C54 %1020.7 hPa16.1 kmSouth (190°)20.4 km/h35.2 km/hClear
2:15 PM13 °C4 °C54 %1020.3 hPa16.1 kmSouth (190°)25.9 km/h42.6 km/hClear
2:35 PM13 °C4 °C54 %1020 hPa16.1 kmSouth (190°)24.1 km/h40.7 km/hClear
2:55 PM13 °C4 °C54 %1020 hPa16.1 kmSouth (180°)14.8 km/h33.3 km/hClear
3:15 PM12 °C4 °C58 %1019.6 hPa16.1 kmSouth (190°)18.5 km/h31.5 km/hClear
3:55 PM12 °C4 °C58 %1019.3 hPa16.1 kmSouth (190°)20.4 km/h29.6 km/hClear
4:15 PM11 °C4 °C62 %1019 hPa16.1 kmSSW (200°)18.5 km/h25.9 km/hClear
4:35 PM11 °C4 °C62 %1019 hPa16.1 kmSouth (190°)18.5 km/h25.9 km/hClear
4:55 PM11 °C4 °C62 %1019 hPa16.1 kmSouth (180°)13 km/hClear
5:15 PM11 °C4 °C62 %1018.6 hPa16.1 kmSouth (190°)14.8 km/hClear
5:35 PM11 °C4 °C62 %1018.3 hPa16.1 kmSouth (180°)9.3 km/hClear
5:55 PM11 °C4 °C62 %1017.9 hPa16.1 kmSouth (180°)13 km/hClear
6:15 PM10 °C4 °C66 %1017.3 hPa16.1 kmSouth (180°)13 km/hClear
6:35 PM10 °C4 °C66 %1016.9 hPa16.1 kmSouth (170°)11.1 km/hClear
6:55 PM10 °C5 °C71 %1016.6 hPa16.1 kmSouth (190°)14.8 km/hClear
7:15 PM10 °C5 °C71 %1016.3 hPa16.1 kmSSW (200°)11.1 km/hClear
7:35 PM10 °C4 °C66 %1015.6 hPa16.1 kmSSW (210°)14.8 km/hClear
7:55 PM10 °C5 °C71 %1015.2 hPa16.1 kmSW (220°)11.1 km/hPartly Cloudy
8:15 PM10 °C4 °C66 %1015.2 hPa16.1 kmSW (230°)5.6 km/hPartly Cloudy
8:35 PM10 °C5 °C71 %1014.6 hPa16.1 kmSW (220°)11.1 km/hPartly Cloudy
8:55 PM9 °C5 °C76 %1014.2 hPa16.1 kmSW (220°)13 km/hPartly Cloudy
9:15 PM9 °C5 °C76 %1014.6 hPa16.1 kmCalmScattered Clouds
9:35 PM9 °C6 °C82 %1014.9 hPa16.1 kmWest (260°)9.3 km/hMostly Cloudy
9:55 PM8 °C7 °C93 %1014.2 hPa11.3 kmSW (220°)13 km/hRainLight Rain
10:15 PM8 °C7 °C93 %1013.9 hPa6.4 kmSSW (210°)11.1 km/hRainLight Rain
10:35 PM8 °C7 °C93 %1013.5 hPa9.7 kmCalmRainLight Rain
10:55 PM8 °C7 °C93 %1013.5 hPa12.9 kmSSW (210°)5.6 km/hRainLight Rain
11:15 PM8 °C7 °C93 %1013.2 hPa16.1 kmSSW (210°)11.1 km/hRainLight Rain
11:35 PM8 °C7 °C93 %1012.9 hPa16.1 kmSouth (180°)9.3 km/hOvercast
11:55 PM8 °C7 °C93 %1012.5 hPa16.1 kmSSW (200°)9.3 km/hOvercast
Hourly data recorded from CZBB, located 0 kilometers away from Vancouver, British Columbia







STORIES FROM OUR PARTNERS